CST,Max TemperatureF,Mean TemperatureF,Min TemperatureF,Max Dew PointF,MeanDew PointF,Min DewpointF,Max Humidity, Mean Humidity, Min Humidity, Max Sea Level PressureIn, Mean Sea Level PressureIn, Min Sea Level PressureIn, Max VisibilityMiles, Mean VisibilityMiles, Min VisibilityMiles, Max Wind SpeedMPH, Mean Wind SpeedMPH, Max Gust SpeedMPH,PrecipitationIn, CloudCover, Events, WindDirDegrees
2013-1-1,75,63,51,66,60,49,100,84,60,30.15,30.03,29.97,10,6,0,16,5,26,0.19,7,Fog-Rain,199
2013-1-2,66,57,48,64,50,42,94,81,56,30.17,30.07,29.98,10,10,6,14,8,16,0.00,8,Rain,346
2013-1-3,46,42,36,43,40,31,93,85,76,30.35,30.25,30.18,10,8,4,10,5,,0.01,6,Rain,357
2013-1-4,57,46,34,38,32,29,89,68,36,30.42,30.37,30.33,10,10,10,9,4,,0.00,0,,6
2013-1-5,55,45,35,41,34,30,89,63,40,30.39,30.33,30.25,10,10,10,5,3,,0.00,2,,49
2013-1-6,54,50,46,45,41,37,86,70,57,30.30,30.24,30.20,10,10,9,8,3,,0.00,7,Rain,10
2013-1-7,64,50,37,40,37,34,89,70,34,30.34,30.28,30.24,10,10,9,9,4,16,0.00,1,,42
2013-1-8,64,54,45,55,48,38,87,74,63,30.30,30.24,30.20,10,10,10,7,3,,0.00,7,,61
2013-1-9,70,65,60,64,61,55,94,86,76,30.30,30.26,30.21,10,8,5,8,5,,0.00,8,Rain,73
2013-1-10,75,70,64,67,65,61,94,86,76,30.30,30.24,30.17,10,8,2,17,7,28,0.00,7,Rain,129
2013-1-11,75,68,60,67,65,60,100,86,73,30.21,30.15,30.09,10,9,2,13,6,20,0.00,7,Rain,165
2013-1-12,78,72,66,66,65,61,96,85,58,30.16,30.10,30.04,10,8,2,12,5,21,0.00,5,,154
2013-1-13,75,72,69,70,67,66,94,87,76,30.07,30.04,30.00,10,9,4,17,7,24,0.00,8,Rain,171
2013-1-14,73,71,69,70,69,67,100,92,82,30.13,30.10,30.05,10,6,1,13,7,25,0.14,8,Rain,180
2013-1-15,75,72,68,70,68,66,96,90,79,30.08,30.02,29.97,10,8,1,20,8,25,0.20,8,Rain,180
2013-1-16,73,62,51,70,61,50,100,94,87,30.01,29.98,29.95,10,7,1,13,6,17,0.45,8,Rain,296
2013-1-17,48,44,39,47,38,31,100,83,65,30.29,30.12,30.00,10,8,2,22,12,30,0.00,7,Rain,283
2013-1-18,61,48,32,38,34,31,96,70,34,30.51,30.43,30.31,10,10,9,13,6,16,0.00,0,,13
2013-1-19,62,46,30,47,38,29,97,76,45,30.44,30.34,30.26,10,10,10,8,2,,0.00,3,,32
2013-1-20,68,52,37,46,41,36,97,75,35,30.27,30.21,30.14,10,9,6,7,1,,0.00,1,,300
2013-1-21,66,50,33,45,39,32,97,67,36,30.22,30.16,30.12,10,8,4,9,2,16,0.00,0,,336
2013-1-22,60,47,33,38,31,21,92,61,27,30.38,30.31,30.21,10,10,10,9,4,,0.00,0,,2
2013-1-23,66,48,30,47,37,28,97,73,36,30.44,30.36,30.32,10,9,7,10,1,,0.00,1,,228
2013-1-24,75,56,37,53,47,37,100,82,40,30.35,30.30,30.25,10,6,0,12,2,18,0.00,1,Fog,261
2013-1-25,70,56,42,54,47,41,100,87,54,30.33,30.27,30.19,10,5,0,14,1,21,0.00,4,Fog-Rain,206
2013-1-26,73,58,44,58,50,45,100,90,57,30.28,30.23,30.19,10,4,0,8,1,,0.00,4,Fog,318
2013-1-27,73,58,44,58,49,44,100,84,49,30.35,30.29,30.27,10,6,1,6,1,,0.00,3,,90
2013-1-28,71,62,54,63,58,52,100,88,73,30.35,30.27,30.20,10,7,0,7,3,,0.00,6,Fog,128
2013-1-29,75,65,55,70,62,55,100,90,71,30.20,30.11,29.95,10,5,0,13,3,24,0.15,7,Fog-Rain,151
2013-1-30,77,62,45,70,62,33,94,87,63,30.08,29.81,29.67,10,7,0,31,17,47,0.29,7,Fog-Rain-Thunderstorm,222
2013-1-31,59,46,33,35,29,22,93,56,26,30.32,30.22,30.11,10,10,10,17,8,25,0.00,0,,319